CW9451 Weather Reports


Display with metric or nautical units.
time (UTC)temp
F
wind
direction
speed
MPH
gust
MPH
rain 1hr
in
rain 24hr
in
rain mn
in
humidity
%
barometer
mb
20260901025904 60 0.0 0.0 0.00 0.00 0.00 10 1018.7
20260901024904 60 0.0 0.0 0.00 0.00 0.00 10 1018.6
20260901023904 61 0.0 0.0 0.00 0.00 0.00 10 1018.5
20260901022905 61 0.0 0.0 0.00 0.00 0.00 10 1018.4
20260901021904 61 0.0 0.0 0.00 0.00 0.00 10 1018.4
20260901020904 61 0.0 0.0 0.00 0.00 0.00 10 1018.4
20260901015904 61 0.0 0.0 0.00 0.00 0.00 10 1018.3
20260901014904 61 0.0 0.0 0.00 0.00 0.00 10 1018.1
20260901013908 62 0.0 0.0 0.00 0.00 0.00 10 1018.2
20260901011904 62 0.0 0.0 0.00 0.00 0.00 10 1018.2
20260901010903 62 0.0 0.0 0.00 0.00 0.00 10 1018.2
20260901005904 62 0.0 0.0 0.00 0.00 0.00 10 1018.3
20260901004904 62 0.0 0.0 0.00 0.00 0.00 10 1018.3
20260901003904 62 0.0 0.0 0.00 0.00 0.00 10 1018.2
20260901002909 62 0.0 0.0 0.00 0.00 0.00 10 1018.2
20260901000904 62 0.0 0.0 0.00 0.00 0.00 10 1017.9
20260831235909 62 0.0 0.0 0.00 0.00 0.00 10 1018.0
20260831225904 61 0.0 0.0 0.00 0.00 0.00 10 1017.5
20260831224909 61 0.0 0.0 0.00 0.00 0.00 10 1017.5
20260831222904 61 0.0 0.0 0.00 0.00 0.00 10 1017.3
20260831221904 61 0.0 0.0 0.00 0.00 0.00 10 1017.0
20260831220904 61 0.0 0.0 0.00 0.00 0.00 10 1017.0
20260831215904 62 0.0 0.0 0.00 0.00 0.00 10 1016.9
20260831214904 62 0.0 0.0 0.00 0.00 0.00 10 1016.9
20260831213903 62 0.0 0.0 0.00 0.00 0.00 10 1016.8
20260831212908 62 0.0 0.0 0.00 0.00 0.00 10 1016.6
20260831210905 62 0.0 0.0 0.00 0.00 0.00 10 1016.6
20260831205904 62 0.0 0.0 0.00 0.00 0.00 10 1016.4
20260831204909 62 0.0 0.0 0.00 0.00 0.00 10 1016.3
20260831203904 62 0.0 0.0 0.00 0.00 0.00 10 1016.2
20260831202904 62 0.0 0.0 0.00 0.00 0.00 10 1016.0
20260831201904 62 0.0 0.0 0.00 0.00 0.00 10 1015.9
20260831200909 62 0.0 0.0 0.00 0.00 0.00 10 1015.7
20260831194904 62 0.0 0.0 0.00 0.00 0.00 10 1015.6
20260831193908 63 0.0 0.0 0.00 0.00 0.00 10 1015.4
20260831191904 63 0.0 0.0 0.00 0.00 0.00 10 1015.0
20260831190905 63 0.0 0.0 0.00 0.00 0.00 10 1014.8
20260831185909 63 0.0 0.0 0.00 0.00 0.00 10 1014.7
20260831183904 64 0.0 0.0 0.00 0.00 0.00 10 1014.7
20260831182904 64 0.0 0.0 0.00 0.00 0.00 10 1014.4
20260831181909 65 0.0 0.0 0.00 0.00 0.00 99 1014.2
20260831175906 65 0.0 0.0 0.00 0.00 0.00 99 1014.1
20260831174905 66 0.0 0.0 0.00 0.00 0.00 10 1014.0
20260831173905 66 0.0 0.0 0.00 0.00 0.00 99 1013.6
20260831172904 66 0.0 0.0 0.00 0.00 0.00 97 1013.4
20260831171905 67 0.0 0.0 0.00 0.00 0.00 94 1013.3
20260831170904 69 0.0 0.0 0.00 0.00 0.00 92 1013.2
20260831165908 72 0.0 0.0 0.00 0.00 0.00 94 1014.1
20260831163904 68 0.0 0.0 0.00 0.00 0.00 10 1013.3
20260831162904 69 0.0 0.0 0.00 0.00 0.00 98 1013.5
20260831161904 66 0.0 0.0 0.00 0.00 0.00 10 1013.6
20260831160905 66 0.0 0.0 0.00 0.00 0.00 10 1013.3
20260831155904 65 0.0 0.0 0.00 0.00 0.00 10 1013.2
20260831154905 67 0.0 0.0 0.00 0.00 0.00 99 1012.9
20260831153904 69 0.0 0.0 0.00 0.00 0.00 92 1012.1
20260831152904 69 0.0 0.0 0.00 0.00 0.00 87 1011.9
20260831151905 70 0.0 0.0 0.00 0.00 0.00 84 1011.8
20260831150909 70 0.0 0.0 0.00 0.00 0.00 82 1011.7
20260831143908 70 0.0 0.0 0.00 0.00 0.00 95 1011.7
20260831141904 72 0.0 0.0 0.00 0.00 0.00 80 1011.3
20260831140904 73 0.0 0.0 0.00 0.00 0.00 83 1011.5
20260831135905 73 0.0 0.0 0.00 0.00 0.00 90 1011.5
20260831134905 74 0.0 0.0 0.00 0.00 0.00 87 1011.7
20260831133904 75 0.0 0.0 0.00 0.00 0.00 93 1011.9
20260831132904 73 0.0 0.0 0.00 0.00 0.00 96 1012.2
20260831131909 71 0.0 0.0 0.00 0.00 0.00 95 1012.1
20260831124905 72 0.0 0.0 0.00 0.00 0.00 78 1011.0
20260831123905 72 0.0 0.0 0.00 0.00 0.00 75 1010.9
20260831122905 72 0.0 0.0 0.00 0.00 0.00 77 1011.4
20260831121904 72 0.0 0.0 0.00 0.00 0.00 80 1011.4
20260831120908 72 0.0 0.0 0.00 0.00 0.00 80 1011.3
20260831114908 75 0.0 0.0 0.00 0.00 0.00 76 1011.9
20260831112905 72 0.0 0.0 0.00 0.00 0.00 86 1012.0
20260831111905 72 0.0 0.0 0.00 0.00 0.00 86 1012.1
20260831110904 72 0.0 0.0 0.00 0.00 0.00 89 1012.2
20260831105904 70 0.0 0.0 0.00 0.00 0.00 93 1012.0
20260831104905 70 0.0 0.0 0.00 0.00 0.00 95 1011.9
20260831103905 71 0.0 0.0 0.00 0.00 0.00 85 1012.0
20260831102904 73 0.0 0.0 0.00 0.00 0.00 82 1012.2
20260831101904 73 0.0 0.0 0.00 0.00 0.00 83 1012.7
20260831100905 71 0.0 0.0 0.00 0.00 0.00 85 1012.4
20260831095904 71 0.0 0.0 0.00 0.00 0.00 84 1012.5
20260831094904 71 0.0 0.0 0.00 0.00 0.00 85 1012.5
20260831093903 72 0.0 0.0 0.00 0.00 0.00 83 1012.6
20260831092904 72 0.0 0.0 0.00 0.00 0.00 85 1012.9
20260831091905 70 0.0 0.0 0.00 0.00 0.00 87 1012.9
20260831090904 70 0.0 0.0 0.00 0.00 0.00 91 1013.2
20260831085909 69 0.0 0.0 0.00 0.00 0.00 97 1013.5
20260831081905 67 0.0 0.0 0.00 0.00 0.00 10 1013.7
20260831080904 67 0.0 0.0 0.00 0.00 0.00 10 1013.8
20260831075905 66 0.0 0.0 0.00 0.00 0.00 10 1013.7
20260831074905 66 0.0 0.0 0.00 0.00 0.00 10 1013.7
20260831073905 66 0.0 0.0 0.00 0.00 0.00 10 1013.7
20260831072904 65 0.0 0.0 0.00 0.00 0.00 10 1013.7
20260831071904 65 0.0 0.0 0.00 0.00 0.00 10 1013.6
20260831070903 65 0.0 0.0 0.00 0.00 0.00 10 1013.6
20260831065904 65 0.0 0.0 0.00 0.00 0.00 10 1013.4
20260831064905 66 0.0 0.0 0.00 0.00 0.00 10 1013.5
20260831063905 66 0.0 0.0 0.00 0.00 0.00 10 1013.3
20260831062904 66 0.0 0.0 0.00 0.00 0.00 10 1013.4
20260831061903 65 0.0 0.0 0.00 0.00 0.00 10 1013.6
20260831060904 65 0.0 0.0 0.00 0.00 0.00 10 1013.4
20260831055909 65 0.0 0.0 0.00 0.00 0.00 10 1013.4
20260831053908 64 0.0 0.0 0.00 0.00 0.00 10 1013.2
20260831045904 63 0.0 0.0 0.00 0.00 0.00 10 1013.0
20260831044904 63 0.0 0.0 0.00 0.00 0.00 10 1013.0
20260831043904 63 0.0 0.0 0.00 0.00 0.00 10 1012.9
20260831042905 64 0.0 0.0 0.00 0.00 0.00 10 1012.9
20260831041905 64 0.0 0.0 0.00 0.00 0.00 10 1012.9
20260831040904 64 0.0 0.0 0.00 0.00 0.00 10 1012.5
20260831035904 64 0.0 0.0 0.00 0.00 0.00 10 1012.6
20260831034905 64 0.0 0.0 0.00 0.00 0.00 10 1012.5
20260831033904 63 0.0 0.0 0.00 0.00 0.00 10 1012.5
20260831032904 63 0.0 0.0 0.00 0.00 0.00 10 1012.5
20260831031904 64 0.0 0.0 0.00 0.00 0.00 99 1012.8
20260831030904 64 0.0 0.0 0.00 0.00 0.00 99 1012.9